Showing default

COSMOS 2501 (GLONASS), 40315

Orbit data source: Space-Track

COSMOS 2501 (GLONASS), 40315 is a Commonwealth of Independent States-origin payload satellite in MEO that was launched on Sun, 30 Nov 2014 UTC via a SOYUZ-2-1B launch vehicle from the Plesetsk Missile And Space Complex (PKMTR). Payloads include a variety of satellites, spacecraft, and rockets equipped with specific instruments for various scientific and technological missions. These include communications satellites like Starlink; space stations such as the ISS; scientific satellites like the Hubble; Earth observation satellites from companies like Planet Labs, Umbra, and HawkEye 360; GPS; miniature CubeSats for education and research; and military/defense satellites.

Loading next visibility...
COSMOS 2501 (GLONASS) details
Identifier
40315, 2014-075A
Orbit
MEO
Last TLE update2 days ago
Origin
Flag of CISVVKO/IACG (CIS)
ManufacturerResehetnev ISS
MissionOperational Defense Navigation
Bus & MotorEKSPRESS-1000, AOCS
Mass974 kg wet, ~800 kg dry
Launch date (UTC)
2014-11-30 (10 years ago)
Launch vehicle
SOYUZ-2-1B
Launch site
Plesetsk Missile And Space Complex (PKMTR)
Object type
Payload
Rocket body
Debris
Shape & HBRBox + 2 Pan, 5 m
Radar Cross Section3.585 m², Large (>1 m²)

Expand to show TLE details & history

TLE from 2 days ago
0 COSMOS 2501 (GLONASS)
1 40315U 14075A   24359.18328663  .00000090  00000-0  00000-0 0  9999
2 40315  63.6162 209.0782 0019083 203.8778 156.1059  2.13101520 78347
Epoch: 2024-12-24T04:23Z
Definitive object data (Epoch: 2024-12-24T04:23:55.964Z)
Latitude-0.00006°
Longitude49.90487°
Altitude19,174.975 km
Speed3.946 km/s
True Right ascension13h 56m 19s
True Declination0° 00' 00"
Sunlit
Object was in daylight at TLE epoch
Visualization TLE readout
Latitude-33.83735°
Longitude30.42171°
Altitude19,163.542 km
Speed3.949 km/s
Apparent Right ascension13h 08m 09s
Apparent Declination-47° 05' 24"
Sunlit
Object is in daylight
Visualization observer readout
Local Sidereal Time10:51:42
Azimuth157.537° S
Elevation-2.155°
Doppler factor1
Orbital elements
Apogee altitude19,178.266 km
Perigee altitude19,080.913 km
Semi-major axis25,507.727 km
Eccentricity0.0019083
Inclination63.6162°
RAAN209.0782°
Arg. of periapsis203.8778°
True anomaly156.19428°
Mean anomaly156.1059°
Eccentric anomaly156.15011°
Mean motion0.53276 °/min
BSTARUnknown
Orbital period675.72 mins
Loading maneuver chart data...
Loading historical data...
Loading historical data...
Loading historical data...
Loading historical data...
Loading historical data...
Loading historical data...
Loading historical data...
Other satellites on launch #75 in the year 2014 (2014-11-30 UTC)

COSMOS 2501 (GLONASS) Visibility forecast

Observer location: undefined°, undefined

Span
Click to sort rows by Start time (UTC) header in descending order
Start Az.
Max El. time (UTC)
Max El. Az.
Max El.
End time (UTC)
End Az.
251 mins2024-12-26 12:00:20.987Z150.809° SSE2024-12-26 14:05:20.987Z83.759° E40.645°2024-12-26 16:11:20.987Z35.358° NE
210 mins2024-12-27 02:26:20.987Z330.953° NNW2024-12-27 04:09:20.987Z287.501° WNW33.784°2024-12-27 05:56:20.987Z231.778° WSW
30 mins2024-12-27 11:00:20.987Z123.689° SE2024-12-27 11:30:20.987Z112.815° SE20.973°2024-12-27 11:30:20.987Z112.815° SE
|